Location: Arthurs Seat
(13.1500°N, 59.6000°W)
Time: 08:41:51
(UTC+00:00)

CZ-4 R/B - Pass Details

Date: 25 August 2019
Orbit: 532 x 598 km, 97.8° (Epoch: 19 September)

Event Time Altitude Azimuth Distance (km) Brightness Sun altitude
Rises 22:36:19 0° 171° (S) 2,750 4.7 -6.2°
Reaches altitude 10° 22:38:28 10° 173° (S) 1,843 3.8 -6.7°
Maximum altitude 22:42:27 76° 258° (WSW) 571 1.5 -7.6°
Drops below altitude 10° 22:46:21 10° 345° (NNW) 1,807 4.4 -8.5°
Sets 22:48:27 0° 346° (NNW) 2,691 5.2 -9.0°
